Weather History for Montrose, CO

Change the Weather History Date:

Wednesday, May 23, 2012

  Actual Average Record
Temperature  
Mean Temperature 65 °F 61 °F  
Max Temperature 78 °F 76 °F 91 °F (2000)
Min Temperature 52 °F 45 °F 33 °F (2002)
Degree Days  
Heating Degree Days 0 5  
Month to date heating degree days 79 192  
Since 1 July heating degree days 5627 6130  
Cooling Degree Days 0 1  
Month to date cooling degree days 10 5  
Year to date cooling degree days 17 5  
Growing Degree Days 16 (Base 50)    
Moisture  
Dew Point 25 °F    
Average Humidity 30    
Maximum Humidity 45    
Minimum Humidity 15    
Precipitation  
Precipitation 0.00 in 0.02 in 0.00 in (2014)
Month to date precipitation T 0.92  
Year to date precipitation 1.56 4.14  
Sea Level Pressure  
Sea Level Pressure 29.45 in    
Wind  
Wind Speed 13 mph (NNW)    
Max Wind Speed 36 mph    
Max Gust Speed 41 mph    
Visibility 9 miles    
Events      
T = Trace of Precipitation, MM = Missing Value Source: NWS Daily Summary

Daily Weather History Graph

Daily Weather History Graph

Search for Another Location

Airport:

Trip Planner

Search our weather history database for the weather conditions in past years. The results will help you decide how hot, cold, wet, or windy it might be!

Date:

Astronomy

May. 23, 2012 Rise Set
Actual Time 5:53 AM MDT 8:23 PM MDT
Civil Twilight 5:23 AM MDT 8:54 PM MDT
Nautical Twilight 4:45 AM MDT 9:32 PM MDT
Astronomical Twilight 4:03 AM MDT 10:14 PM MDT
Moon 7:59 AM MDT (5/23) 10:47 PM MDT (5/23)
Length of Visible Light 15h 31m
Length of Day
14h 30m
Waxing Crescent, 7% of the Moon is Illuminated
May 23
Waxing Crescent
May 28
First Quarter
Jun 4
Full
Jun 11
Last Quarter
Jun 19
New

Hourly Weather History & Observations

Time (MDT) Temp. Dew Point Humidity Pressure Visibility Wind Dir Wind Speed Gust Speed Precip Events Conditions
12:53 AM 62.1 °F 19.0 °F 19% 29.51 in 10.0 mi SSE 13.8 mph - N/A   Clear
2:53 AM 64.0 °F 17.1 °F 16% 29.47 in 10.0 mi South 16.1 mph - N/A   Clear
3:53 AM 63.0 °F 18.0 °F 18% 29.47 in 10.0 mi SSE 9.2 mph - N/A   Clear
4:53 AM 64.9 °F 18.0 °F 16% 29.46 in 10.0 mi South 11.5 mph - N/A   Clear
5:53 AM 64.0 °F 18.0 °F 17% 29.44 in 10.0 mi South 10.4 mph - N/A   Clear
6:53 AM 64.9 °F 17.1 °F 16% 29.46 in 10.0 mi South 8.1 mph - N/A   Clear
7:53 AM 68.0 °F 19.9 °F 16% 29.47 in 10.0 mi North 6.9 mph - N/A   Clear
8:53 AM 69.1 °F 28.9 °F 22% 29.48 in 10.0 mi North 17.3 mph - N/A   Clear
9:53 AM 70.0 °F 28.9 °F 22% 29.49 in 10.0 mi NNW 18.4 mph 27.6 mph N/A   Clear
10:53 AM 72.0 °F 28.9 °F 20% 29.47 in 10.0 mi NNW 16.1 mph - N/A   Clear
11:53 AM 73.9 °F 30.0 °F 20% 29.46 in 10.0 mi NNW 12.7 mph 20.7 mph N/A   Clear
12:53 PM 75.9 °F 30.0 °F 19% 29.42 in 10.0 mi NNW 15.0 mph 21.9 mph N/A   Clear
1:53 PM 75.0 °F 30.0 °F 19% 29.37 in 10.0 mi NNW 11.5 mph 21.9 mph N/A   Clear
2:53 PM 75.9 °F 30.0 °F 19% 29.33 in 10.0 mi NNW 12.7 mph - N/A   Partly Cloudy
3:53 PM 73.9 °F 28.0 °F 18% 29.32 in 10.0 mi NNW 9.2 mph - N/A   Scattered Clouds
4:53 PM 73.9 °F 26.1 °F 17% 29.29 in 10.0 mi NNW 16.1 mph - N/A   Clear
5:53 PM 70.0 °F 23.0 °F 17% 29.32 in 4.0 mi NNW 27.6 mph 39.1 mph N/A   Haze
6:17 PM 68.0 °F 24.8 °F 20% 29.58 in 2.5 mi NNW 26.5 mph 41.4 mph N/A   Haze
6:25 PM 69.8 °F 24.8 °F 18% 29.58 in 6.0 mi NNW 31.1 mph 41.4 mph N/A   Haze
6:53 PM 69.1 °F 24.1 °F 18% 29.37 in 4.0 mi NNW 27.6 mph 38.0 mph N/A   Haze
7:53 PM 64.0 °F 24.1 °F 22% 29.41 in 10.0 mi NNW 15.0 mph - N/A   Clear
8:53 PM 61.0 °F 23.0 °F 23% 29.46 in 10.0 mi NNW 3.5 mph - N/A   Clear
9:53 PM 59.0 °F 30.0 °F 33% 29.52 in 10.0 mi North 8.1 mph - N/A   Scattered Clouds
10:53 PM 57.0 °F 30.0 °F 36% 29.57 in 10.0 mi North 17.3 mph 24.2 mph N/A   Partly Cloudy
11:53 PM 53.1 °F 32.0 °F 45% 29.58 in 10.0 mi NNW 3.5 mph - N/A   Scattered Clouds